Radiation Dose at Monitoring Post of Fukushima Daini Nuclear Power Station
Date,Time,MP-1(microSv/h),MP-2(microSv/h),MP-3(microSv/h),MP-4(microSv/h),MP-5(microSv/h),MP-6(microSv/h),MP-7(microSv/h),Wind Direction,Wind Velocity(m/s),Rain
2018/09/14,00:00,0.307,0.190,0.307,0.295,0.282,0.151,0.093,south-southwest,6.3,No
2018/09/14,00:10,0.308,0.188,0.305,0.297,0.279,0.153,0.093,south-southwest,6.1,No
2018/09/14,00:20,0.305,0.189,0.308,0.293,0.283,0.151,0.094,south-southwest,6.7,No
2018/09/14,00:30,0.307,0.189,0.307,0.297,0.280,0.152,0.093,south,5.8,No
2018/09/14,00:40,0.306,0.190,0.307,0.296,0.280,0.151,0.093,south-southwest,6.6,No
2018/09/14,00:50,0.308,0.189,0.307,0.297,0.283,0.151,0.093,south-southwest,6.7,No
2018/09/14,01:00,0.309,0.190,0.306,0.297,0.279,0.153,0.094,south-southwest,7.1,Yes
2018/09/14,01:10,0.307,0.189,0.307,0.294,0.282,0.152,0.094,south-southwest,6.7,Yes
2018/09/14,01:20,0.306,0.189,0.307,0.297,0.283,0.154,0.093,south-southwest,7.3,Yes
2018/09/14,01:30,0.308,0.191,0.309,0.298,0.281,0.155,0.096,south-southwest,7.1,Yes
2018/09/14,01:40,0.310,0.192,0.311,0.301,0.285,0.156,0.098,south-southwest,7.3,Yes
2018/09/14,01:50,0.310,0.194,0.308,0.300,0.283,0.157,0.099,south-southwest,6.1,Yes
2018/09/14,02:00,0.310,0.194,0.312,0.299,0.286,0.157,0.099,south-southwest,4.5,Yes
2018/09/14,02:10,0.312,0.195,0.309,0.302,0.284,0.157,0.098,south-southwest,4.8,Yes
2018/09/14,02:20,0.310,0.194,0.311,0.297,0.282,0.156,0.099,south-southwest,5.0,Yes
2018/09/14,02:30,0.311,0.194,0.309,0.300,0.285,0.157,0.098,southwest,4.3,Yes
2018/09/14,02:40,0.309,0.193,0.310,0.297,0.282,0.157,0.099,south-southwest,4.4,Yes
2018/09/14,02:50,0.308,0.192,0.309,0.298,0.286,0.155,0.097,south-southwest,3.3,Yes
2018/09/14,03:00,0.310,0.193,0.307,0.298,0.282,0.156,0.098,south-southwest,3.2,Yes
2018/09/14,03:10,0.307,0.192,0.309,0.295,0.283,0.155,0.098,southwest,3.4,Yes
2018/09/14,03:20,0.309,0.193,0.306,0.298,0.284,0.155,0.098,south-southwest,3.6,Yes
2018/09/14,03:30,0.306,0.192,0.307,0.295,0.282,0.156,0.099,southwest,3.4,Yes
2018/09/14,03:40,0.307,0.193,0.305,0.297,0.283,0.154,0.098,southwest,3.0,Yes
2018/09/14,03:50,0.307,0.193,0.307,0.295,0.283,0.156,0.099,southwest,2.8,Yes
2018/09/14,04:00,0.305,0.192,0.305,0.294,0.284,0.156,0.098,west-southwest,1.8,Yes
2018/09/14,04:10,0.308,0.193,0.306,0.296,0.281,0.155,0.099,north-northwest,0.6,Yes
2018/09/14,04:20,0.305,0.192,0.305,0.295,0.283,0.155,0.099,south-southwest,1.5,Yes
2018/09/14,04:30,0.308,0.193,0.304,0.295,0.284,0.154,0.098,south-southwest,2.4,Yes
2018/09/14,04:40,0.306,0.192,0.305,0.293,0.281,0.154,0.098,south-southwest,2.5,Yes
2018/09/14,04:50,0.305,0.192,0.302,0.297,0.284,0.154,0.098,south-southwest,2.6,Yes
2018/09/14,05:00,0.305,0.191,0.304,0.293,0.281,0.155,0.097,south-southwest,2.9,Yes
2018/09/14,05:10,0.304,0.191,0.302,0.294,0.283,0.154,0.097,south-southwest,2.8,Yes
2018/09/14,05:20,0.306,0.189,0.304,0.293,0.281,0.151,0.096,south-southwest,3.4,Yes
2018/09/14,05:30,0.302,0.189,0.302,0.291,0.281,0.152,0.095,southwest,3.4,Yes
2018/09/14,05:40,0.305,0.188,0.302,0.293,0.281,0.151,0.095,south-southwest,2.9,Yes
2018/09/14,05:50,0.303,0.188,0.302,0.291,0.277,0.151,0.093,southwest,2.8,No
2018/09/14,06:00,0.302,0.188,0.300,0.292,0.281,0.150,0.094,southwest,2.1,No
2018/09/14,06:10,0.303,0.188,0.303,0.289,0.277,0.150,0.094,southwest,3.0,No
2018/09/14,06:20,0.299,0.187,0.300,0.292,0.281,0.150,0.093,southwest,2.3,No
2018/09/14,06:30,0.304,0.186,0.301,0.291,0.279,0.149,0.092,southwest,2.2,No
2018/09/14,06:40,0.301,0.187,0.300,0.289,0.278,0.149,0.092,southwest,3.4,No
2018/09/14,06:50,0.301,0.185,0.300,0.290,0.281,0.149,0.092,southwest,2.4,No
2018/09/14,07:00,0.302,0.187,0.301,0.288,0.277,0.149,0.092,west-southwest,0.9,No
2018/09/14,07:10,0.299,0.185,0.298,0.290,0.279,0.150,0.092,south-southwest,1.9,No
2018/09/14,07:20,0.303,0.186,0.302,0.290,0.280,0.149,0.093,south,2.1,No
2018/09/14,07:30,0.303,0.187,0.300,0.288,0.276,0.149,0.092,south,1.6,No
2018/09/14,07:40,0.299,0.186,0.298,0.292,0.280,0.149,0.092,south,2.2,No
2018/09/14,07:50,0.302,0.187,0.300,0.291,0.279,0.149,0.092,south-southwest,1.1,No
2018/09/14,08:00,0.301,0.187,0.298,0.289,0.277,0.148,0.092,south-southwest,0.6,No
2018/09/14,08:10,0.300,0.185,0.300,0.292,0.277,0.150,0.092,-,CALM,No
2018/09/14,08:20,0.304,0.186,0.302,0.292,0.280,0.148,0.092,southwest,0.7,No
2018/09/14,08:30,0.302,0.188,0.299,0.288,0.278,0.148,0.092,-,CALM,No
2018/09/14,08:40,0.300,0.188,0.301,0.287,0.276,0.149,0.093,east-southeast,0.8,No
2018/09/14,08:50,0.299,0.186,0.303,0.288,0.276,0.150,0.091,southeast,1.6,No
2018/09/14,09:00,0.299,0.185,0.298,0.293,0.281,0.149,0.092,south-southeast,2.5,No
2018/09/14,09:10,0.304,0.186,0.300,0.293,0.280,0.148,0.092,south,4.2,No
2018/09/14,09:20,0.303,0.185,0.302,0.290,0.278,0.149,0.091,south-southeast,5.2,No
2018/09/14,09:30,0.301,0.184,0.298,0.289,0.278,0.150,0.091,south,6.1,No
2018/09/14,09:40,0.299,0.184,0.298,0.287,0.273,0.150,0.090,south,5.6,No
2018/09/14,09:50,0.298,0.183,0.303,0.287,0.275,0.148,0.091,south,6.2,No
2018/09/14,10:00,0.297,0.184,0.300,0.287,0.275,0.149,0.091,south,5.9,No
2018/09/14,10:10,0.298,0.188,0.297,0.287,0.278,0.148,0.091,south,6.0,No
2018/09/14,10:20,0.302,0.186,0.300,0.292,0.280,0.149,0.091,south,7.1,No
2018/09/14,10:30,0.303,0.186,0.300,0.291,0.278,0.149,0.092,south-southeast,7.0,No
2018/09/14,10:40,0.302,0.186,0.300,0.290,0.278,0.149,0.091,south-southeast,6.9,No
2018/09/14,10:50,0.301,0.184,0.298,0.288,0.276,0.148,0.091,south,6.6,No
2018/09/14,11:00,0.300,0.186,0.298,0.288,0.275,0.149,0.091,south,6.3,No
2018/09/14,11:10,0.300,0.184,0.302,0.288,0.275,0.149,0.091,south-southeast,5.7,No
2018/09/14,11:20,0.299,0.184,0.300,0.290,0.276,0.149,0.091,south-southeast,6.0,No
2018/09/14,11:30,0.300,0.187,0.300,0.292,0.276,0.149,0.090,south-southeast,6.5,No
2018/09/14,11:40,0.300,0.188,0.298,0.290,0.279,0.150,0.091,south,6.9,No
2018/09/14,11:50,0.300,0.187,0.297,0.290,0.281,0.150,0.090,south,7.0,No
2018/09/14,12:00,0.302,0.186,0.303,0.290,0.280,0.149,0.091,south,7.8,No
2018/09/14,12:10,0.305,0.186,0.302,0.289,0.278,0.149,0.091,south,7.6,No
2018/09/14,12:20,0.304,0.186,0.301,0.289,0.276,0.149,0.091,south,8.5,No
2018/09/14,12:30,0.303,0.186,0.300,0.288,0.276,0.150,0.091,south,7.3,No
2018/09/14,12:40,0.302,0.186,0.300,0.289,0.277,0.150,0.090,south,7.8,No
2018/09/14,12:50,0.303,0.184,0.299,0.288,0.277,0.150,0.091,south,7.9,No
2018/09/14,13:00,0.301,0.185,0.298,0.289,0.278,0.150,0.091,south,9.2,No
2018/09/14,13:10,0.300,0.185,0.298,0.290,0.276,0.151,0.091,south,8.8,No
2018/09/14,13:20,0.300,0.186,0.300,0.290,0.276,0.149,0.091,south,10.6,No
2018/09/14,13:30,0.301,0.185,0.300,0.290,0.278,0.150,0.091,south,9.0,No
2018/09/14,13:40,0.300,0.185,0.298,0.291,0.278,0.150,0.092,south,9.2,No
2018/09/14,13:50,0.302,0.186,0.300,0.291,0.277,0.150,0.091,south,8.6,No
2018/09/14,14:00,0.301,0.185,0.299,0.292,0.278,0.150,0.092,south,10.7,No
2018/09/14,14:10,0.299,0.186,0.300,0.295,0.278,0.149,0.093,south-southwest,10.4,No
2018/09/14,14:20,0.300,0.186,0.301,0.295,0.277,0.151,0.092,south,8.1,No
2018/09/14,14:30,0.303,0.186,0.305,0.293,0.277,0.150,0.092,south,6.6,No
2018/09/14,14:40,0.306,0.189,0.306,0.289,0.279,0.150,0.092,south,6.4,No
2018/09/14,14:50,0.305,0.188,0.302,0.295,0.282,0.151,0.092,south,8.1,No
2018/09/14,15:00,0.303,0.186,0.301,0.294,0.282,0.151,0.092,south,8.5,No
2018/09/14,15:10,0.301,0.185,0.300,0.293,0.280,0.151,0.092,south,8.1,No
2018/09/14,15:20,0.303,0.186,0.304,0.291,0.278,0.150,0.091,south,6.8,No
2018/09/14,15:30,0.302,0.189,0.304,0.293,0.277,0.150,0.092,south,8.6,No
2018/09/14,15:40,0.304,0.188,0.301,0.294,0.278,0.150,0.092,south,7.9,No
2018/09/14,15:50,0.308,0.187,0.302,0.293,0.277,0.151,0.092,south,6.9,No
2018/09/14,16:00,0.306,0.187,0.304,0.291,0.282,0.151,0.092,south-southwest,5.9,No
2018/09/14,16:10,0.301,0.188,0.302,0.295,0.281,0.151,0.092,south,6.4,No
2018/09/14,16:20,0.304,0.189,0.301,0.294,0.280,0.151,0.093,south,6.5,No
2018/09/14,16:30,0.308,0.186,0.304,0.291,0.277,0.150,0.092,south,6.3,No
2018/09/14,16:40,0.305,0.187,0.304,0.292,0.277,0.151,0.091,south,7.6,No
2018/09/14,16:50,0.302,0.188,0.301,0.296,0.277,0.151,0.092,south,7.8,No
2018/09/14,17:00,0.304,0.187,0.303,0.293,0.280,0.150,0.092,south,7.4,No
2018/09/14,17:10,0.306,0.186,0.303,0.291,0.281,0.150,0.091,south-southwest,7.7,No
2018/09/14,17:20,0.302,0.189,0.301,0.295,0.279,0.151,0.092,south-southwest,5.4,No
2018/09/14,17:30,0.304,0.188,0.303,0.293,0.280,0.151,0.092,south-southwest,5.9,No
2018/09/14,17:40,0.307,0.186,0.304,0.291,0.283,0.150,0.093,southwest,4.4,No
2018/09/14,17:50,0.303,0.188,0.301,0.295,0.280,0.152,0.092,southwest,2.9,No
2018/09/14,18:00,0.304,0.187,0.305,0.293,0.281,0.152,0.093,southwest,4.0,No
2018/09/14,18:10,0.306,0.188,0.304,0.292,0.283,0.151,0.092,southwest,5.5,No
2018/09/14,18:20,0.305,0.188,0.302,0.296,0.278,0.152,0.093,southwest,4.3,No
2018/09/14,18:30,0.306,0.187,0.306,0.292,0.281,0.150,0.092,southwest,5.6,No
2018/09/14,18:40,0.305,0.188,0.304,0.293,0.282,0.151,0.093,southwest,5.4,No
2018/09/14,18:50,0.303,0.188,0.303,0.295,0.278,0.152,0.092,southwest,4.6,No
2018/09/14,19:00,0.306,0.187,0.304,0.292,0.282,0.151,0.092,southwest,3.6,No
2018/09/14,19:10,0.303,0.187,0.302,0.296,0.280,0.150,0.093,south,1.5,No
2018/09/14,19:20,0.307,0.189,0.305,0.294,0.281,0.152,0.092,south,4.2,No
2018/09/14,19:30,0.305,0.188,0.304,0.294,0.282,0.151,0.092,south,4.4,No
2018/09/14,19:40,0.303,0.187,0.303,0.295,0.278,0.152,0.093,south,5.6,No
2018/09/14,19:50,0.306,0.188,0.305,0.292,0.282,0.151,0.092,south,5.1,No
2018/09/14,20:00,0.303,0.187,0.302,0.295,0.280,0.151,0.092,south,5.3,No
2018/09/14,20:10,0.306,0.189,0.305,0.294,0.280,0.152,0.092,south,4.7,No
2018/09/14,20:20,0.305,0.188,0.302,0.292,0.282,0.151,0.092,south,5.3,No
2018/09/14,20:30,0.302,0.189,0.303,0.294,0.280,0.150,0.093,south,6.3,No
2018/09/14,20:40,0.305,0.187,0.306,0.293,0.281,0.150,0.093,south,6.5,No
2018/09/14,20:50,0.304,0.187,0.302,0.294,0.281,0.150,0.093,south,5.8,No
2018/09/14,21:00,0.303,0.188,0.305,0.295,0.277,0.151,0.093,south,6.5,No
2018/09/14,21:10,0.305,0.187,0.302,0.292,0.281,0.151,0.092,south,6.9,No
2018/09/14,21:20,0.304,0.188,0.304,0.296,0.280,0.152,0.093,south-southwest,6.4,No
2018/09/14,21:30,0.305,0.187,0.304,0.293,0.280,0.151,0.093,south-southwest,7.6,No
2018/09/14,21:40,0.304,0.187,0.302,0.293,0.282,0.151,0.093,south-southwest,6.9,No
2018/09/14,21:50,0.303,0.188,0.305,0.295,0.280,0.152,0.093,south-southwest,6.6,No
2018/09/14,22:00,0.306,0.189,0.303,0.293,0.282,0.152,0.092,south-southwest,6.1,No
2018/09/14,22:10,0.304,0.188,0.304,0.294,0.281,0.151,0.092,south,6.3,No
2018/09/14,22:20,0.306,0.189,0.306,0.295,0.279,0.152,0.093,south,5.6,No
2018/09/14,22:30,0.305,0.189,0.303,0.293,0.282,0.151,0.093,south,4.9,No
2018/09/14,22:40,0.303,0.188,0.304,0.296,0.278,0.152,0.093,south,5.3,No
2018/09/14,22:50,0.306,0.189,0.304,0.294,0.282,0.152,0.093,south,5.1,No
2018/09/14,23:00,0.303,0.189,0.305,0.294,0.280,0.152,0.092,south,4.1,No
2018/09/14,23:10,0.306,0.189,0.306,0.296,0.279,0.152,0.093,south,3.6,No
2018/09/14,23:20,0.306,0.189,0.303,0.294,0.282,0.151,0.093,south,4.0,No
2018/09/14,23:30,0.304,0.189,0.305,0.297,0.280,0.151,0.093,south,4.7,No
2018/09/14,23:40,0.308,0.188,0.304,0.293,0.281,0.153,0.093,south,4.9,No
2018/09/14,23:50,0.305,0.189,0.303,0.297,0.283,0.151,0.094,south,5.3,No
